TimeEST,TemperatureF,Dew PointF,Humidity,Sea Level PressureIn,VisibilityMPH,Wind Direction,Wind SpeedMPH,Gust SpeedMPH,PrecipitationIn,Events,Conditions,WindDirDegrees,DateUTC
12:15 AM,38.3,31.1,75,30.24,10.0,Calm,Calm,-,N/A,,Overcast,0,2013-01-06 05:15:00
12:35 AM,37.4,32.0,81,30.23,10.0,Calm,Calm,-,N/A,,Overcast,0,2013-01-06 05:35:00
12:55 AM,38.3,32.0,78,30.23,10.0,SSE,3.5,-,N/A,,Overcast,150,2013-01-06 05:55:00
1:15 AM,38.3,31.5,76,30.24,10.0,Calm,Calm,-,N/A,,Overcast,0,2013-01-06 06:15:00
1:35 AM,38.8,31.6,75,30.23,10.0,Calm,Calm,-,N/A,,Overcast,0,2013-01-06 06:35:00
1:55 AM,39.2,31.6,74,30.22,10.0,Calm,Calm,-,N/A,,Overcast,0,2013-01-06 06:55:00
2:15 AM,39.2,31.6,74,30.20,10.0,SE,4.6,-,N/A,,Overcast,130,2013-01-06 07:15:00
2:35 AM,38.8,32.0,76,30.20,10.0,SSE,4.6,-,N/A,Rain,Light Rain,150,2013-01-06 07:35:00
2:55 AM,38.1,32.2,79,30.20,10.0,Calm,Calm,-,N/A,,Overcast,0,2013-01-06 07:55:00
3:15 AM,39.2,31.3,73,30.18,10.0,Calm,Calm,-,N/A,,Mostly Cloudy,0,2013-01-06 08:15:00
3:35 AM,39.0,31.5,74,30.19,10.0,Calm,Calm,-,N/A,,Overcast,0,2013-01-06 08:35:00
3:55 AM,38.7,31.6,76,30.18,10.0,Calm,Calm,-,N/A,,Overcast,0,2013-01-06 08:55:00
4:15 AM,38.3,32.2,79,30.18,10.0,Calm,Calm,-,N/A,,Overcast,0,2013-01-06 09:15:00
4:35 AM,38.1,32.9,81,30.17,10.0,Calm,Calm,-,N/A,,Mostly Cloudy,0,2013-01-06 09:35:00
4:55 AM,36.0,32.4,87,30.17,10.0,Calm,Calm,-,N/A,,Mostly Cloudy,0,2013-01-06 09:55:00
5:15 AM,35.6,32.0,87,30.17,10.0,Calm,Calm,-,N/A,,Mostly Cloudy,0,2013-01-06 10:15:00
5:35 AM,35.2,31.8,87,30.17,10.0,Calm,Calm,-,N/A,,Scattered Clouds,0,2013-01-06 10:35:00
5:55 AM,32.9,32.0,96,30.17,10.0,Calm,Calm,-,N/A,,Clear,0,2013-01-06 10:55:00
6:15 AM,32.0,30.7,95,30.18,10.0,Calm,Calm,-,N/A,,Clear,0,2013-01-06 11:15:00
6:35 AM,30.4,29.1,95,30.18,10.0,Calm,Calm,-,N/A,,Clear,0,2013-01-06 11:35:00
6:55 AM,30.2,29.5,97,30.18,10.0,Calm,Calm,-,N/A,,Clear,0,2013-01-06 11:55:00
7:15 AM,29.3,28.8,98,30.19,10.0,Calm,Calm,-,N/A,,Clear,0,2013-01-06 12:15:00
7:35 AM,28.9,28.4,98,30.18,10.0,Calm,Calm,-,N/A,,Clear,0,2013-01-06 12:35:00
7:55 AM,28.2,27.3,96,30.19,10.0,Calm,Calm,-,N/A,,Clear,0,2013-01-06 12:55:00
8:15 AM,28.8,28.0,97,30.19,10.0,Calm,Calm,-,N/A,,Clear,0,2013-01-06 13:15:00
8:35 AM,30.9,30.0,96,30.19,10.0,Calm,Calm,-,N/A,,Clear,0,2013-01-06 13:35:00
8:55 AM,32.5,30.7,93,30.20,10.0,Calm,Calm,-,N/A,,Clear,0,2013-01-06 13:55:00
9:35 AM,39.2,32.0,75,30.20,10.0,Calm,Calm,-,N/A,,Clear,0,2013-01-06 14:35:00
9:55 AM,41.2,32.5,71,30.20,10.0,Calm,Calm,-,N/A,,Clear,0,2013-01-06 14:55:00
10:15 AM,42.3,33.3,70,30.19,10.0,Calm,Calm,-,N/A,,Clear,0,2013-01-06 15:15:00
10:35 AM,43.9,32.5,64,30.19,10.0,Calm,Calm,-,N/A,,Clear,0,2013-01-06 15:35:00
10:55 AM,45.7,31.6,58,30.18,10.0,Calm,Calm,-,N/A,,Clear,0,2013-01-06 15:55:00
11:15 AM,47.3,31.1,53,30.17,10.0,Calm,Calm,-,N/A,,Clear,0,2013-01-06 16:15:00
11:35 AM,48.4,31.1,51,30.15,10.0,Calm,Calm,-,N/A,,Clear,0,2013-01-06 16:35:00
11:55 AM,48.6,30.0,49,30.14,10.0,Calm,Calm,-,N/A,,Clear,0,2013-01-06 16:55:00
12:15 PM,49.6,31.5,50,30.13,10.0,Calm,Calm,-,N/A,,Clear,0,2013-01-06 17:15:00
12:35 PM,50.5,31.5,48,30.11,10.0,Calm,Calm,-,N/A,,Clear,0,2013-01-06 17:35:00
12:55 PM,51.4,31.3,46,30.10,10.0,South,4.6,-,N/A,,Clear,180,2013-01-06 17:55:00
1:15 PM,52.2,30.9,44,30.09,10.0,WNW,5.8,-,N/A,,Clear,290,2013-01-06 18:15:00
1:35 PM,52.5,30.4,43,30.09,10.0,Calm,Calm,-,N/A,,Clear,0,2013-01-06 18:35:00
1:55 PM,52.3,29.5,42,30.08,10.0,West,3.5,-,N/A,,Clear,270,2013-01-06 18:55:00
2:15 PM,52.9,29.8,41,30.08,10.0,Calm,Calm,-,N/A,,Clear,0,2013-01-06 19:15:00
2:35 PM,53.4,30.2,41,30.08,10.0,WSW,5.8,-,N/A,,Scattered Clouds,240,2013-01-06 19:35:00
2:55 PM,52.7,30.0,42,30.08,10.0,SSW,3.5,-,N/A,,Scattered Clouds,210,2013-01-06 19:55:00
3:15 PM,52.9,29.8,41,30.08,10.0,SW,3.5,-,N/A,,Scattered Clouds,220,2013-01-06 20:15:00
3:35 PM,52.7,30.0,42,30.08,10.0,West,3.5,-,N/A,,Mostly Cloudy,270,2013-01-06 20:35:00
4:15 PM,51.4,30.0,44,30.08,10.0,Calm,Calm,-,N/A,,Scattered Clouds,0,2013-01-06 21:15:00
4:35 PM,49.3,29.3,46,30.08,10.0,Calm,Calm,-,N/A,,Scattered Clouds,0,2013-01-06 21:35:00
4:55 PM,48.7,29.1,47,30.08,10.0,Calm,Calm,-,N/A,,Scattered Clouds,0,2013-01-06 21:55:00
5:15 PM,46.6,30.7,54,30.08,10.0,Calm,Calm,-,N/A,,Mostly Cloudy,0,2013-01-06 22:15:00
5:35 PM,46.0,30.4,54,30.09,10.0,Calm,Calm,-,N/A,,Overcast,0,2013-01-06 22:35:00
5:55 PM,45.1,31.6,59,30.09,10.0,Calm,Calm,-,N/A,,Overcast,0,2013-01-06 22:55:00
6:15 PM,44.1,31.5,61,30.10,10.0,Calm,Calm,-,N/A,,Overcast,0,2013-01-06 23:15:00
6:35 PM,43.2,32.0,65,30.11,10.0,Calm,Calm,-,N/A,,Overcast,0,2013-01-06 23:35:00
6:55 PM,43.3,32.0,64,30.11,10.0,Calm,Calm,-,N/A,,Overcast,0,2013-01-06 23:55:00
7:15 PM,42.1,32.4,68,30.12,10.0,Calm,Calm,-,N/A,,Overcast,0,2013-01-07 00:15:00
7:35 PM,44.1,31.3,61,30.12,10.0,West,3.5,-,N/A,,Overcast,280,2013-01-07 00:35:00
7:55 PM,44.8,31.1,59,30.13,10.0,Calm,Calm,-,N/A,,Overcast,0,2013-01-07 00:55:00
8:15 PM,45.9,30.2,54,30.13,10.0,WNW,3.5,-,N/A,,Overcast,300,2013-01-07 01:15:00
8:35 PM,45.1,30.6,57,30.14,10.0,West,3.5,-,N/A,,Overcast,280,2013-01-07 01:35:00
8:55 PM,45.5,30.4,56,30.14,10.0,WNW,3.5,-,N/A,,Overcast,290,2013-01-07 01:55:00
9:15 PM,45.1,30.2,56,30.14,10.0,WNW,4.6,-,N/A,,Overcast,300,2013-01-07 02:15:00
9:35 PM,44.2,30.6,59,30.15,10.0,WNW,4.6,-,N/A,,Overcast,290,2013-01-07 02:35:00
9:55 PM,44.6,30.6,58,30.15,10.0,WNW,3.5,-,N/A,,Overcast,300,2013-01-07 02:55:00
10:15 PM,44.4,30.4,58,30.16,10.0,Calm,Calm,-,N/A,,Overcast,0,2013-01-07 03:15:00
10:35 PM,44.6,30.2,57,30.15,10.0,Calm,Calm,-,N/A,,Overcast,0,2013-01-07 03:35:00
11:35 PM,39.2,32.0,75,30.18,10.0,Calm,Calm,-,N/A,,Overcast,0,2013-01-07 04:35:00
11:55 PM,39.0,31.8,75,30.18,10.0,Calm,Calm,-,N/A,,Overcast,0,2013-01-07 04:55:00